Weather History for KLHX - May, 2013

Change the Weather History Date:

Wednesday, May 8, 2013

  Actual Average Record
Temperature  
Mean Temperature 55 °F 60 °F  
Max Temperature 64 °F 75 °F 97 °F (1963)
Min Temperature 46 °F 45 °F 33 °F (1978)
Degree Days  
Heating Degree Days 10 6  
Month to date heating degree days 109 55  
Since 1 July heating degree days 5040 5178  
Cooling Degree Days 0 1  
Month to date cooling degree days 0 8  
Year to date cooling degree days 4 17  
Growing Degree Days 6 (Base 50)    
Moisture  
Dew Point 43 °F    
Average Humidity 65    
Maximum Humidity 86    
Minimum Humidity 43    
Precipitation  
Precipitation 0.11 in 0.05 in 1.30 in (2015)
Month to date precipitation 0.12 0.42  
Year to date precipitation 0.57 3.14  
Sea Level Pressure  
Sea Level Pressure 29.86 in    
Wind  
Wind Speed 12 mph (NNW)    
Max Wind Speed 28 mph    
Max Gust Speed 33 mph    
Visibility 10 miles    
Events Rain    
T = Trace of Precipitation, MM = Missing Value Source: NWS Daily Summary

Daily Weather History Graph

Daily Weather History Graph

Search for Another Location

Airport or City:

Trip Planner

Search our weather history database for the weather conditions in past years. The results will help you decide how hot, cold, wet, or windy it might be!

Date:

Astronomy

May. 08, 2013 Rise Set
Actual Time 5:49 AM MDT 7:51 PM MDT
Civil Twilight 5:20 AM MDT 8:20 PM MDT
Nautical Twilight 4:45 AM MDT 8:56 PM MDT
Astronomical Twilight 4:07 AM MDT 9:34 PM MDT
Moon 4:58 AM MDT (5/8) 6:52 PM MDT (5/8)
Length of Visible Light 14h 59m
Length of Day
14h 01m
Waning Crescent, 2% of the Moon is Illuminated
May 8
Waning Crescent
May 9
New
May 17
First Quarter
May 24
Full
May 31
Last Quarter

Hourly Weather History & Observations

Time (MDT) Temp. Dew Point Humidity Pressure Visibility Wind Dir Wind Speed Gust Speed Precip Events Conditions
12:53 AM 55.0 °F 42.1 °F 62% 29.76 in 10.0 mi North 6.9 mph - N/A   Partly Cloudy
1:53 AM 54.0 °F 43.0 °F 66% 29.79 in 10.0 mi NW 4.6 mph - N/A   Clear
2:53 AM 51.1 °F 44.1 °F 77% 29.79 in 10.0 mi North 6.9 mph - N/A   Clear
3:53 AM 50.0 °F 42.1 °F 74% 29.79 in 10.0 mi NW 3.5 mph - N/A   Clear
4:53 AM 50.0 °F 41.0 °F 71% 29.79 in 10.0 mi Calm Calm - N/A   Clear
5:53 AM 50.0 °F 39.9 °F 68% 29.82 in 10.0 mi WSW 9.2 mph - N/A   Clear
6:53 AM 53.1 °F 43.0 °F 69% 29.84 in 10.0 mi NW 8.1 mph - N/A   Clear
7:53 AM 57.0 °F 43.0 °F 59% 29.84 in 10.0 mi North 11.5 mph - N/A   Partly Cloudy
8:53 AM 62.1 °F 39.9 °F 44% 29.85 in 10.0 mi NE 8.1 mph - N/A   Clear
9:53 AM 64.0 °F 41.0 °F 43% 29.84 in 10.0 mi NE 9.2 mph - N/A   Scattered Clouds
10:53 AM 62.1 °F 41.0 °F 46% 29.89 in 10.0 mi Variable 3.5 mph - N/A   Overcast
11:53 AM 55.9 °F 46.0 °F 69% 29.89 in 10.0 mi WNW 24.2 mph - 0.00 in   Scattered Clouds
12:53 PM 61.0 °F 44.1 °F 54% 29.88 in 10.0 mi NNW 26.5 mph - N/A   Scattered Clouds
1:53 PM 59.0 °F 42.1 °F 53% 29.87 in 10.0 mi NW 18.4 mph - N/A   Mostly Cloudy
2:33 PM 51.8 °F 44.6 °F 76% 29.94 in 9.0 mi NW 17.3 mph - 0.10 in Rain Light Rain
2:53 PM 53.1 °F 45.0 °F 74% 29.86 in 10.0 mi NW 10.4 mph - 0.11 in   Mostly Cloudy
3:53 PM 62.1 °F 46.0 °F 56% 29.82 in 10.0 mi West 19.6 mph - N/A   Clear
4:53 PM 62.1 °F 43.0 °F 50% 29.84 in 10.0 mi NNW 12.7 mph - N/A   Clear
5:53 PM 57.0 °F 43.0 °F 59% 29.89 in 10.0 mi North 24.2 mph - N/A   Scattered Clouds
6:53 PM 55.9 °F 43.0 °F 62% 29.85 in 10.0 mi North 23.0 mph - N/A   Clear
7:53 PM 54.0 °F 43.0 °F 66% 29.87 in 10.0 mi North 15.0 mph - N/A   Clear
8:53 PM 51.1 °F 44.1 °F 77% 29.91 in 10.0 mi North 10.4 mph - N/A   Clear
9:53 PM 48.9 °F 43.0 °F 80% 29.92 in 10.0 mi North 8.1 mph - N/A   Clear
10:53 PM 48.0 °F 43.0 °F 83% 29.93 in 10.0 mi NW 10.4 mph - N/A   Clear
11:53 PM 46.9 °F 43.0 °F 86% 29.97 in 10.0 mi WNW 6.9 mph - N/A   Clear